IRS P2 R/B

Satellite information

Favourite Embed

Satellite Type and Status

ROCKET BODYIN ORBIT

Key statistics

Satellite IRS P2 R/B at a glance.

Uptime

11382

Days in orbit

Revolutions

≈ 14.2

Per day

Orbit

SSO

Sun Synchronous Orbit

Inclination

98.9

Latest

Satellite identification and parameters

Extended collection of information and parameters for IRS P2 R/B.

Object identification

Identified? True

Debris? False

Object name: IRS P2 R/B

International designator: 1994-068B

Object number (NORAD): 23324

Object ID (CCSDS): 23324

Country: INDIA (IND)

Current information (Y/N): Y

RCS size: LARGE

Orbital parameters

Period: 101.597 minutes

Inclination: 98.8682 deg

SMA: 7212.394 km

Apoapsis: 876.157 km

Periapsis: 792.361 km

RAAN: 55.9318 deg

Eccentricy: 0.00580921

Argument of periapsis: 87.7585 deg

Mean anomaly: 273.024 deg

Mean motion: 14.17371194 rev/day

Mean motion (dot): 0.00000119 rev/day2

B* drag term: 0.000079383554 1/REarth

Two-line elements (TLE)

Creation date: Dec. 12, 2025, 10:14 a.m.

Reference frame: TEME

Reference center: EARTH

Epoch: Dec. 12, 2025, 5:25 a.m. UTC

TLE line 0: 0 IRS P2 R/B

TLE line 1: 1 23324U 94068B 25346.22596703 .00000119 00000-0 79384-4 0 9991

TLE line 2: 2 23324 98.8682 55.9318 0058092 87.7585 273.0240 14.17371194611051

Live tracking on map

Real-time ground track for satellite IRS P2 R/B.

In-orbit conjunctions

A list of the most updated potential collisions computed for object IRS P2 R/B.

Target Orbit TCA Probability of collision Miss distance Type
COSMOS 1275 DEB LEO 2025-09-14 02:01:37 0.00017447 295.0 (m) DEBRIS
COSMOS 1275 DEB LEO 2025-08-16 15:16:21 0.0001025902 60.0 (m) DEBRIS
NOAA 16 DEB SSO 2025-08-03 23:57:23 0.0006254486 110.0 (m) DEBRIS
FENGYUN 1C DEB SSO 2025-05-07 05:24:29 0.0001459181 461.0 (m) DEBRIS
CZ-6A DEB LEO 2025-04-13 04:26:51 0.000135509 338.0 (m) DEBRIS

Associated space launch

IRS-P2 (Indian Remote Sensing Satellite) was an Indian experimental earth observation satellite.

IRS P2 R/B was lifted into orbit during the mission ‘PSLV | IRS-P2’, on board a PSLV space rocket.

The launch took place on Oct. 15, 1994, 5:05 a.m. from Satish Dhawan Space Centre First Launch Pad.

For more information about the launch, click the button.

Launch to space PSLV | IRS-P2
PSLV | IRS-P2

Agency: N/A

Status: Launch Successful

Launch date: Oct. 15, 1994, 5:05 a.m. UTC

Rocket: PSLV

Launch pad: Satish Dhawan Space Centre First Launch Pad

Location: Satish Dhawan Space Centre, India

...

Latest news about this satellite

There are no fresh news available about this satellite. Check back as we update our databases every day.


Newsletter sign-up

Weekly statistics, charts and insights to help you stay on top of the space industry.